Walla Walla, WA

1:55 AM PDT on May 28, 2017 (GMT -0700)
Walla Walla Regional

Weather History for KALW - November, 2013

Change the Weather History Date:

Monday, November 11, 2013

  Actual Average Record
Temperature  
Mean Temperature 44 °F 44 °F  
Max Temperature 46 °F 51 °F 69 °F (1989)
Min Temperature 41 °F 37 °F 9 °F (1978)
Degree Days  
Heating Degree Days 22 21  
Month to date heating degree days 216  
Since 1 July heating degree days 681  
Cooling Degree Days 0 0  
Month to date cooling degree days 0  
Year to date cooling degree days 850  
Moisture  
Dew Point 40 °F    
Average Humidity 88    
Maximum Humidity 96    
Minimum Humidity 79    
Precipitation  
Precipitation 0.00 in 0.11 in 0.80 in (1968)
Month to date precipitation 1.06  
Year to date precipitation 16.57  
Snow  
Snow 0.00 in 0.00 in 0.20 in (1955)
Month to date snowfall 0.2  
Year to date snowfall 6.3  
Since 1 July snowfall 0.3  
Snow Depth -    
Sea Level Pressure  
Sea Level Pressure 30.30 in    
Wind  
Wind Speed 3 mph (South)    
Max Wind Speed 8 mph    
Max Gust Speed -    
Visibility 5 miles    
Events      
T = Trace of Precipitation, MM = Missing Value Source: NWS Daily Summary

Daily Weather History Graph

Daily Weather History Graph

Search for Another Location

Airport or City:

Trip Planner

Search our weather history database for the weather conditions in past years. The results will help you decide how hot, cold, wet, or windy it might be!

Date:

Astronomy

Nov. 11, 2013 Rise Set
Actual Time 6:48 AM PST 4:25 PM PST
Civil Twilight 6:16 AM PST 4:57 PM PST
Nautical Twilight 5:40 AM PST 5:33 PM PST
Astronomical Twilight 5:05 AM PST 6:08 PM PST
Moon 1:26 PM PST (11/11) 12:19 AM PST (11/11)
Length of Visible Light 10h 40m
Length of Day
9h 36m
Waxing Gibbous, 67% of the Moon is Illuminated
Nov 11
Waxing Gibbous
Nov 17
Full
Nov 25
Last Quarter
Dec 2
New
Dec 9
First Quarter

Hourly Weather History & Observations

Time (PST) Temp. Windchill Dew Point Humidity Pressure Visibility Wind Dir Wind Speed Gust Speed Precip Events Conditions
12:05 AM 42.8 °F - 39.2 °F 87% 30.23 in 5.0 mi Calm Calm - N/A   Mostly Cloudy
12:26 AM 42.8 °F 40.1 °F 39.2 °F 87% 30.23 in 5.0 mi South 4.6 mph - N/A   Overcast
12:53 AM 42.1 °F 39.2 °F 39.9 °F 92% 30.25 in 4.0 mi South 4.6 mph - N/A   Mostly Cloudy
1:05 AM 42.8 °F 40.1 °F 39.2 °F 87% 30.24 in 4.0 mi South 4.6 mph - N/A   Mostly Cloudy
1:14 AM 42.8 °F 40.1 °F 39.2 °F 87% 30.24 in 4.0 mi South 4.6 mph - N/A   Mostly Cloudy
1:53 AM 42.1 °F 38.4 °F 39.9 °F 92% 30.26 in 4.0 mi South 5.8 mph - N/A   Overcast
2:53 AM 42.1 °F 39.2 °F 41.0 °F 96% 30.26 in 4.0 mi South 4.6 mph - N/A   Overcast
3:43 AM 42.8 °F 38.6 °F 39.2 °F 87% 30.26 in 5.0 mi SSW 6.9 mph - N/A   Overcast
3:53 AM 42.1 °F 38.4 °F 39.9 °F 92% 30.29 in 5.0 mi SSW 5.8 mph - N/A   Overcast
4:00 AM 42.8 °F 38.6 °F 39.2 °F 87% 30.27 in 5.0 mi SSW 6.9 mph - N/A   Overcast
4:53 AM 41.0 °F 35.8 °F 39.9 °F 96% 30.30 in 4.0 mi SSW 8.1 mph - N/A   Overcast
5:53 AM 41.0 °F 39.0 °F 39.0 °F 93% 30.32 in 5.0 mi SSW 3.5 mph - N/A   Overcast
6:23 AM 41.0 °F - 39.2 °F 93% 30.30 in 5.0 mi Calm Calm - N/A   Overcast
6:53 AM 41.0 °F - 39.0 °F 93% 30.32 in 6.0 mi Calm Calm - N/A   Overcast
7:00 AM 41.0 °F - 39.2 °F 93% 30.30 in 5.0 mi Calm Calm - N/A   Overcast
7:13 AM 41.0 °F - 39.2 °F 93% 30.31 in 4.0 mi Calm Calm - N/A   Overcast
7:53 AM 42.1 °F 39.2 °F 39.9 °F 92% 30.36 in 4.0 mi SSW 4.6 mph - N/A   Overcast
8:22 AM 41.0 °F 39.0 °F 39.2 °F 93% 30.33 in 2.0 mi South 3.5 mph - N/A   Overcast
8:32 AM 41.0 °F 38.0 °F 39.2 °F 93% 30.33 in 1.5 mi South 4.6 mph - N/A   Overcast
8:48 AM 42.8 °F - 39.2 °F 87% 30.33 in 1.8 mi Calm Calm - N/A   Overcast
8:53 AM 42.1 °F - 39.9 °F 92% 30.35 in 2.0 mi Calm Calm - N/A   Overcast
9:50 AM 42.8 °F 41.1 °F 41.0 °F 93% 30.33 in 3.0 mi NNW 3.5 mph - N/A   Overcast
9:53 AM 43.0 °F 41.3 °F 41.0 °F 93% 30.35 in 3.0 mi NNW 3.5 mph - N/A   Overcast
10:53 AM 42.1 °F - 39.9 °F 92% 30.37 in 4.0 mi Calm Calm - N/A   Overcast
11:14 AM 42.8 °F - 39.2 °F 87% 30.34 in 4.0 mi Calm Calm - N/A   Overcast
11:50 AM 44.6 °F 43.1 °F 41.0 °F 87% 30.32 in 5.0 mi South 3.5 mph - N/A   Overcast
11:53 AM 44.1 °F 42.5 °F 41.0 °F 89% 30.34 in 5.0 mi SSW 3.5 mph - N/A   Overcast
12:39 PM 44.6 °F 42.2 °F 39.2 °F 81% 30.33 in 7.0 mi SW 4.6 mph - N/A   Overcast
12:53 PM 44.1 °F 42.5 °F 39.9 °F 85% 30.35 in 7.0 mi SW 3.5 mph - N/A   Overcast
1:53 PM 46.0 °F - 41.0 °F 83% 30.32 in 7.0 mi Calm Calm - N/A   Overcast
2:53 PM 46.0 °F - 39.9 °F 79% 30.31 in 7.0 mi Calm Calm - N/A   Overcast
3:53 PM 46.0 °F - 39.9 °F 79% 30.29 in 7.0 mi Calm Calm - N/A   Overcast
4:53 PM 45.0 °F 43.5 °F 39.9 °F 82% 30.28 in 8.0 mi SE 3.5 mph - N/A   Overcast
5:53 PM 45.0 °F - 39.9 °F 82% 30.29 in 8.0 mi Calm Calm - N/A   Overcast
6:53 PM 45.0 °F - 39.9 °F 82% 30.27 in 7.0 mi Calm Calm - N/A   Overcast
7:53 PM 45.0 °F 43.5 °F 39.9 °F 82% 30.28 in 7.0 mi SSW 3.5 mph - N/A   Overcast
8:53 PM 45.0 °F 43.5 °F 39.9 °F 82% 30.29 in 6.0 mi SSE 3.5 mph - N/A   Haze
9:53 PM 45.0 °F 43.5 °F 41.0 °F 86% 30.27 in 7.0 mi SE 3.5 mph - N/A   Overcast
10:53 PM 45.0 °F 41.8 °F 39.9 °F 82% 30.26 in 7.0 mi SE 5.8 mph - N/A   Overcast
11:53 PM 45.0 °F 43.5 °F 39.9 °F 82% 30.24 in 7.0 mi ESE 3.5 mph - N/A   Overcast